TimeCST,TemperatureF,Dew PointF,Humidity,Sea Level PressureIn,VisibilityMPH,Wind Direction,Wind SpeedMPH,Gust SpeedMPH,PrecipitationIn,Events,Conditions,WindDirDegrees,DateUTC
12:56 AM,23.0,19.0,85,30.11,3.0,Calm,Calm,-,N/A,,Scattered Clouds,0,2013-02-25 06:56:00
1:08 AM,21.2,19.4,93,30.04,2.5,Calm,Calm,-,N/A,,Clear,0,2013-02-25 07:08:00
1:38 AM,19.4,17.6,93,30.05,3.0,WSW,3.5,-,N/A,,Scattered Clouds,250,2013-02-25 07:38:00
1:46 AM,21.2,17.6,86,30.06,2.5,WSW,3.5,-,N/A,,Mostly Cloudy,240,2013-02-25 07:46:00
1:56 AM,21.0,19.0,92,30.13,2.5,WSW,3.5,-,N/A,,Mostly Cloudy,250,2013-02-25 07:56:00
2:05 AM,23.0,19.4,86,30.06,3.0,SSW,3.5,-,N/A,,Overcast,210,2013-02-25 08:05:00
2:56 AM,24.1,21.0,88,30.13,4.0,WNW,4.6,-,N/A,,Overcast,300,2013-02-25 08:56:00
3:56 AM,21.0,18.0,88,30.10,3.0,NW,4.6,-,N/A,,Partly Cloudy,310,2013-02-25 09:56:00
4:06 AM,19.4,17.6,93,30.03,2.5,Calm,Calm,-,N/A,,Clear,0,2013-02-25 10:06:00
4:56 AM,21.0,19.0,92,30.12,2.0,Calm,Calm,-,N/A,,Clear,0,2013-02-25 10:56:00
5:31 AM,15.8,12.2,86,30.06,1.8,WNW,3.5,-,N/A,,Partly Cloudy,300,2013-02-25 11:31:00
5:56 AM,18.0,16.0,92,30.12,0.8,Calm,Calm,-,N/A,,Clear,0,2013-02-25 11:56:00
6:12 AM,19.4,17.6,93,30.07,0.2,Calm,Calm,-,N/A,Fog,Light Freezing Fog,0,2013-02-25 12:12:00
6:29 AM,17.6,14.0,86,30.07,1.0,Calm,Calm,-,N/A,,Overcast,0,2013-02-25 12:29:00
6:40 AM,17.6,15.8,93,30.06,2.5,Calm,Calm,-,N/A,,Overcast,0,2013-02-25 12:40:00
6:56 AM,18.0,15.1,88,30.14,2.5,WNW,3.5,-,N/A,,Overcast,290,2013-02-25 12:56:00
7:22 AM,19.4,15.8,86,30.06,1.5,NW,3.5,-,N/A,,Overcast,310,2013-02-25 13:22:00
7:56 AM,19.9,17.1,89,30.13,1.2,WNW,3.5,-,N/A,,Mostly Cloudy,290,2013-02-25 13:56:00
8:36 AM,24.8,21.2,86,30.07,2.0,West,4.6,-,N/A,,Overcast,280,2013-02-25 14:36:00
8:45 AM,24.8,21.2,86,30.07,2.5,WNW,4.6,-,N/A,,Overcast,300,2013-02-25 14:45:00
8:56 AM,25.0,21.9,88,30.14,2.5,NW,4.6,-,N/A,,Overcast,320,2013-02-25 14:56:00
9:28 AM,28.4,24.8,86,30.07,3.0,Calm,Calm,-,N/A,,Overcast,0,2013-02-25 15:28:00
9:56 AM,30.0,24.1,79,30.13,4.0,NNE,6.9,-,N/A,,Haze,20,2013-02-25 15:56:00
10:56 AM,30.9,25.0,79,30.13,5.0,North,9.2,-,N/A,,Haze,360,2013-02-25 16:56:00
11:56 AM,33.1,26.1,75,30.11,7.0,NNW,11.5,-,N/A,,Overcast,340,2013-02-25 17:56:00
12:56 PM,34.0,26.1,73,30.07,8.0,North,11.5,-,N/A,,Mostly Cloudy,350,2013-02-25 18:56:00
1:11 PM,33.8,24.8,70,30.00,9.0,North,12.7,-,N/A,,Scattered Clouds,360,2013-02-25 19:11:00
1:56 PM,34.0,25.0,70,30.05,10.0,North,11.5,-,N/A,,Partly Cloudy,10,2013-02-25 19:56:00
2:40 PM,33.8,24.8,70,30.00,10.0,NNE,9.2,-,N/A,,Mostly Cloudy,30,2013-02-25 20:40:00
2:56 PM,34.0,25.0,70,30.05,10.0,NNE,9.2,-,N/A,,Scattered Clouds,30,2013-02-25 20:56:00
3:56 PM,34.0,25.0,70,30.04,10.0,North,10.4,-,N/A,,Clear,350,2013-02-25 21:56:00
4:56 PM,32.0,24.1,73,30.04,10.0,NNE,10.4,-,N/A,,Clear,20,2013-02-25 22:56:00
5:56 PM,30.0,23.0,75,30.03,10.0,NNE,9.2,-,N/A,,Clear,20,2013-02-25 23:56:00
6:56 PM,27.0,21.0,78,30.04,9.0,North,8.1,-,N/A,,Clear,10,2013-02-26 00:56:00
7:56 PM,25.0,21.0,85,30.03,7.0,North,6.9,-,N/A,,Clear,360,2013-02-26 01:56:00
8:56 PM,23.0,19.9,88,30.01,6.0,North,6.9,-,N/A,,Clear,360,2013-02-26 02:56:00
9:38 PM,21.2,19.4,93,29.93,6.0,North,4.6,-,N/A,,Scattered Clouds,10,2013-02-26 03:38:00
9:49 PM,23.0,19.4,86,29.94,6.0,NNE,6.9,-,N/A,,Mostly Cloudy,20,2013-02-26 03:49:00
9:56 PM,24.1,19.9,84,30.00,6.0,NNE,6.9,-,N/A,,Mostly Cloudy,30,2013-02-26 03:56:00
10:56 PM,25.0,21.9,88,29.99,4.0,NNE,9.2,-,N/A,,Overcast,30,2013-02-26 04:56:00
11:56 PM,25.0,21.9,88,29.99,4.0,ENE,9.2,-,N/A,,Overcast,60,2013-02-26 05:56:00